         **** Don't distribute anyone except personal use only ****

                (C) Copyright 2003 OAA/ComputingSection

write mail from CFAD0::NAKANO on 2003-10-19 02:58:01(JST).

 



◎P/2003 S2の軌道と予報位置です

 

  9月26日のシェロ−ドの CCD全光度は,それぞれ,17.6等でした.



    P/2003 S2 (NEAT)                                                      

T 2003 July 16.74464 TT                                 Nakano

q   2.3319729            (2000.0)            P               Q

n   0.11753184     Peri.  263.22276     +0.98649641     +0.10226453

a   4.1276135      Node    90.85179     -0.04428824     +0.91857280

e   0.4350312      Incl.    7.35097     -0.15768128     +0.38179310

P   8.39 (+/-76.01 day)

From 28 observations 2003 Sept. 19-26.

 

Date/        TT  R.A.(2000) Decl.     Delta   r     Daily motion  Mag.  Moon Age

              h    h  m       。  ,                      ,  / PA 。  m1      。

2003 Sept.25 14  02 00.31  -00 06.8   1.459  2.390     7.1 / 243  17.5  146  .01

          26 14  01 59.89  -00 10.1   1.456  2.392     7.4 / 244  17.5  160  .00

          27 14  01 59.44  -00 13.3   1.453  2.393     7.7 / 245  17.5  170  .03

          28 14  01 58.98  -00 16.6   1.450  2.395     7.9 / 246  17.5  165  .08

          29 14  01 58.49  -00 19.8   1.448  2.397     8.2 / 247  17.5  152  .16

          30 14  01 57.99  -00 23.0   1.446  2.398     8.4 / 248  17.5  138  .26

     Oct.  1 14  01 57.47  -00 26.2   1.444  2.400     8.7 / 249  17.5  124  .36

           2 14  01 56.93  -00 29.3   1.442  2.402     8.9 / 250  17.5  110  .48

           3 14  01 56.38  -00 32.4   1.441  2.404     9.1 / 250  17.5   96  .59

           4 14  01 55.81  -00 35.4   1.439  2.405     9.3 / 251  17.5   82  .69

           5 14  01 55.22  -00 38.4   1.438  2.407     9.5 / 252  17.5   69  .78

           6 14  01 54.62  -00 41.4   1.438  2.409     9.6 / 253  17.5   56  .86

           7 14  01 54.01  -00 44.3   1.437  2.411     9.8 / 253  17.5   44  .93

           8 14  01 53.38  -00 47.1   1.437  2.413     9.9 / 254  17.5   31  .97

           9 14  01 52.75  -00 49.8   1.437  2.415    10.0 / 255  17.5   20  .99

          10 14  01 52.10  -00 52.4   1.437  2.416    10.2 / 255  17.5   11 1.00

          11 14  01 51.45  -00 55.0   1.437  2.418    10.3 / 256  17.5   12  .98

          12 14  01 50.78  -00 57.5   1.438  2.420    10.3 / 257  17.5   21  .95

          13 14  01 50.11  -00 59.8   1.439  2.422    10.4 / 257  17.6   33  .91

          14 14  01 49.44  -01 02.1   1.440  2.424    10.4 / 258  17.6   44  .84

          15 14  01 48.75  -01 04.2   1.442  2.426    10.5 / 259  17.6   56  .77

          16 14  01 48.07  -01 06.3   1.443  2.428    10.5 / 259  17.6   68  .68

          17 14  01 47.38  -01 08.2   1.445  2.430    10.5 / 260  17.6   80  .59

          18 14  01 46.69  -01 10.0   1.448  2.432    10.5 / 261  17.6   92  .49

          19 14  01 46.00  -01 11.7   1.450  2.434    10.5 / 262  17.6  105  .39

          20 14  01 45.31  -01 13.2   1.453  2.436    10.4 / 262  17.6  118  .30

          21 14  01 44.62  -01 14.7   1.456  2.439    10.4 / 263  17.6  131  .20

          22 14  01 43.93  -01 15.9   1.459  2.441    10.3 / 264  17.6  144  .12

          23 14  01 43.24  -01 17.0   1.463  2.443    10.2 / 265  17.6  158  .06

          24 14  01 42.56  -01 18.0   1.466  2.445    10.1 / 265  17.7  170  .01

          25 14  01 41.89  -01 18.8   1.470  2.447    10.0 / 266  17.7  167  .00

          26 14  01 41.22  -01 19.5   1.475  2.449     9.9 / 267  17.7  153  .02

          27 14  01 40.57  -01 20.0   1.479  2.452     9.8 / 268  17.7  139  .06

          28 14  01 39.92  -01 20.3   1.484  2.454     9.6 / 269  17.7  124  .13

          29 14  01 39.27  -01 20.5   1.489  2.456     9.4 / 270  17.7  109  .22

          30 14  01 38.65  -01 20.5   1.494  2.458     9.3 / 271  17.7   95  .33

          31 14  01 38.03  -01 20.4   1.500  2.461     9.1 / 272  17.7   81  .43

     Nov.  1 14  01 37.42  -01 20.0   1.506  2.463     8.9 / 273  17.8   68  .54

NAKANO

         **** Don't distribute anyone except personal use only ****

                (C) Copyright 2003 OAA/ComputingSection

write mail from CFAD0::NAKANO on 2003-09-27 04:34:37(JST).

 

戻ります。